Weather History for Crosby, ND

Change the Weather History Date:

Friday, March 21, 2014

  Actual Average (KISN) Record (KISN)
Temperature  
Mean Temperature 18 °F 32 °F  
Max Temperature 30 °F 43 °F 72 °F (1910)
Min Temperature 6 °F 20 °F -15 °F (1899)
Degree Days  
Heating Degree Days 47 33  
Month to date heating degree days 801  
Since 1 July heating degree days 7569  
Cooling Degree Days 0 0  
Month to date cooling degree days 0  
Year to date cooling degree days 0  
Moisture  
Dew Point 11 °F    
Average Humidity 81    
Maximum Humidity 100    
Minimum Humidity 67    
Precipitation  
Precipitation 0.08 in 0.02 in 0.53 in (1941)
Month to date precipitation 0.46  
Year to date precipitation 1.44  
Sea Level Pressure  
Sea Level Pressure 30.26 in    
Wind  
Wind Speed 19 mph (NNW)    
Max Wind Speed 28 mph    
Max Gust Speed 36 mph    
Visibility 10 miles    
Events Rain , Snow    
T = Trace of Precipitation, MM = Missing Value Source: NWS Daily Summary

Daily Weather History Graph

Daily Weather History Graph

Search for Another Location

Airport:

Trip Planner

Search our weather history database for the weather conditions in past years. The results will help you decide how hot, cold, wet, or windy it might be!

Date:

Astronomy

Mar. 21, 2014 Rise Set
Actual Time 7:53 AM CDT 8:07 PM CDT
Civil Twilight 7:22 AM CDT 8:39 PM CDT
Nautical Twilight 6:45 AM CDT 9:16 PM CDT
Astronomical Twilight 6:06 AM CDT 9:55 PM CDT
Moon 12:50 AM CDT (3/21) 10:24 AM CDT (3/21)
Length of Visible Light 13h 17m
Length of Day
12h 13m
Waning Gibbous, 75% of the Moon is Illuminated
Mar 21
Waning Gibbous
Mar 23
Last Quarter
Mar 30
New
Apr 7
First Quarter
Apr 15
Full

Hourly Weather History & Observations

Time (CDT) Temp. Windchill Dew Point Humidity Pressure Visibility Wind Dir Wind Speed Gust Speed Precip Events Conditions
12:15 AM 30.2 °F 18.9 °F 30.2 °F 100% 29.87 in 7.0 mi NNE 16.1 mph 21.9 mph N/A Rain Light Freezing Rain
12:35 AM 30.2 °F 18.1 °F 30.2 °F 100% 29.89 in 9.0 mi NNE 18.4 mph 24.2 mph N/A Rain Light Freezing Rain
12:55 AM 30.2 °F 18.5 °F 30.2 °F 100% 29.90 in 10.0 mi North 17.3 mph - N/A   Overcast
1:15 AM 28.4 °F 17.0 °F 28.4 °F 100% 29.92 in 10.0 mi North 15.0 mph - N/A   Overcast
1:35 AM 28.4 °F 17.0 °F 28.4 °F 100% 29.93 in 10.0 mi North 15.0 mph 20.7 mph N/A   Overcast
1:55 AM 28.4 °F 17.0 °F 28.4 °F 100% 29.94 in 10.0 mi North 15.0 mph - N/A   Overcast
2:15 AM 28.4 °F 17.5 °F 28.4 °F 100% 29.95 in 10.0 mi North 13.8 mph 23.0 mph N/A   Overcast
2:35 AM 28.4 °F 16.2 °F 28.4 °F 100% 29.96 in 10.0 mi North 17.3 mph 26.5 mph N/A   Overcast
2:55 AM 28.4 °F 14.4 °F 28.4 °F 100% 29.97 in 10.0 mi NNW 23.0 mph 31.1 mph N/A   Overcast
3:15 AM 26.6 °F 11.4 °F 26.6 °F 100% 29.99 in 10.0 mi North 25.3 mph 34.5 mph N/A   Overcast
3:35 AM 26.6 °F 11.4 °F 26.6 °F 100% 30.00 in 10.0 mi North 25.3 mph 33.4 mph N/A   Overcast
3:55 AM 26.6 °F 11.7 °F 26.6 °F 100% 30.01 in 10.0 mi North 24.2 mph 29.9 mph N/A   Overcast
4:15 AM 26.6 °F 11.7 °F 26.6 °F 100% 30.02 in 10.0 mi North 24.2 mph 33.4 mph N/A   Overcast
4:35 AM 24.8 °F 10.3 °F 24.8 °F 100% 30.04 in 10.0 mi North 20.7 mph 29.9 mph N/A   Overcast
4:55 AM 24.8 °F 9.6 °F 24.8 °F 100% 30.05 in 10.0 mi North 23.0 mph 29.9 mph N/A   Overcast
5:15 AM 23.0 °F 6.3 °F 23.0 °F 100% 30.07 in 10.0 mi NNW 26.5 mph 32.2 mph N/A   Overcast
5:35 AM 23.0 °F 6.6 °F 21.2 °F 93% 30.08 in 10.0 mi North 25.3 mph 33.4 mph N/A   Overcast
5:55 AM 23.0 °F 6.3 °F 21.2 °F 93% 30.09 in 10.0 mi North 26.5 mph 32.2 mph N/A Snow Light Snow
6:15 AM 21.2 °F 4.5 °F 19.4 °F 93% 30.11 in 10.0 mi North 24.2 mph 33.4 mph N/A   Overcast
6:35 AM 19.4 °F 1.1 °F 17.6 °F 93% 30.13 in 10.0 mi North 27.6 mph 31.1 mph N/A   Overcast
6:55 AM 17.6 °F 0.9 °F 15.8 °F 93% 30.14 in 10.0 mi North 20.7 mph 29.9 mph N/A   Overcast
7:15 AM 17.6 °F 0.1 °F 15.8 °F 93% 30.16 in 7.0 mi North 23.0 mph 31.1 mph 0.01 in Snow Light Snow
7:35 AM 15.8 °F -3.4 °F 10.4 °F 79% 30.19 in 10.0 mi North 26.5 mph 35.7 mph 0.01 in Snow Light Snow
7:55 AM 15.8 °F -1.5 °F 10.4 °F 79% 30.21 in 5.0 mi North 20.7 mph 33.4 mph 0.03 in Snow Light Snow
8:15 AM 14.0 °F -4.7 °F 6.8 °F 73% 30.24 in 9.0 mi North 23.0 mph 33.4 mph N/A Snow Light Snow
8:35 AM 14.0 °F -3.4 °F 8.6 °F 79% 30.24 in 8.0 mi North 19.6 mph 28.8 mph N/A Snow Light Snow
8:55 AM 12.2 °F -6.7 °F 6.8 °F 79% 30.25 in 10.0 mi North 21.9 mph 33.4 mph 0.01 in   Mostly Cloudy
9:15 AM 14.0 °F -4.7 °F 6.8 °F 73% 30.26 in 10.0 mi North 23.0 mph 29.9 mph N/A   Overcast
9:35 AM 14.0 °F -3.9 °F 6.8 °F 73% 30.27 in 10.0 mi North 20.7 mph 26.5 mph N/A Snow Light Snow
9:55 AM 12.2 °F -7.9 °F 8.6 °F 85% 30.28 in 1.8 mi NNW 25.3 mph 29.9 mph 0.04 in Snow Light Snow
10:15 AM 12.2 °F -7.9 °F 6.8 °F 79% 30.30 in 10.0 mi North 25.3 mph 32.2 mph N/A   Overcast
10:35 AM 12.2 °F -6.7 °F 6.8 °F 79% 30.31 in 10.0 mi North 21.9 mph 27.6 mph N/A   Overcast
10:55 AM 12.2 °F -6.7 °F 6.8 °F 79% 30.31 in 10.0 mi North 21.9 mph 32.2 mph N/A Snow Light Snow
11:15 AM 12.2 °F -7.1 °F 6.8 °F 79% 30.32 in 9.0 mi North 23.0 mph 26.5 mph N/A Snow Light Snow
11:35 AM 12.2 °F -7.1 °F 5.0 °F 73% 30.32 in 10.0 mi North 23.0 mph 28.8 mph N/A   Mostly Cloudy
11:55 AM 14.0 °F -3.4 °F 6.8 °F 73% 30.33 in 10.0 mi NNW 19.6 mph 28.8 mph N/A   Mostly Cloudy
12:15 PM 14.0 °F -4.3 °F 6.8 °F 73% 30.34 in 10.0 mi NNW 21.9 mph 26.5 mph N/A   Overcast
12:35 PM 14.0 °F -4.3 °F 6.8 °F 73% 30.35 in 10.0 mi NNW 21.9 mph 29.9 mph N/A   Overcast
12:55 PM 14.0 °F -3.9 °F 6.8 °F 73% 30.35 in 10.0 mi NNW 20.7 mph - N/A   Mostly Cloudy
1:15 PM 14.0 °F -4.7 °F 6.8 °F 73% 30.36 in 10.0 mi NNW 23.0 mph 27.6 mph N/A   Mostly Cloudy
1:35 PM 14.0 °F -3.4 °F 6.8 °F 73% 30.36 in 10.0 mi NNW 19.6 mph 26.5 mph N/A   Mostly Cloudy
1:55 PM 14.0 °F -3.0 °F 6.8 °F 73% 30.37 in 10.0 mi NNW 18.4 mph 27.6 mph N/A   Unknown
2:15 PM 14.0 °F -3.0 °F 6.8 °F 73% 30.37 in 10.0 mi NNW 18.4 mph 26.5 mph N/A   Overcast
2:35 PM 14.0 °F -3.0 °F 6.8 °F 73% 30.38 in 10.0 mi NNW 18.4 mph 26.5 mph N/A   Mostly Cloudy
2:55 PM 14.0 °F -3.4 °F 6.8 °F 73% 30.38 in 10.0 mi NNW 19.6 mph 23.0 mph N/A   Mostly Cloudy
3:15 PM 14.0 °F -3.0 °F 6.8 °F 73% 30.38 in 10.0 mi North 18.4 mph 26.5 mph N/A   Scattered Clouds
3:35 PM 14.0 °F -3.0 °F 6.8 °F 73% 30.38 in 10.0 mi NNW 18.4 mph 25.3 mph N/A   Scattered Clouds
3:55 PM 14.0 °F -3.4 °F 6.8 °F 73% 30.38 in 10.0 mi NNW 19.6 mph 25.3 mph N/A   Scattered Clouds
4:15 PM 14.0 °F -3.9 °F 6.8 °F 73% 30.38 in 10.0 mi North 20.7 mph 26.5 mph N/A   Mostly Cloudy
4:35 PM 14.0 °F -2.5 °F 6.8 °F 73% 30.38 in 10.0 mi NNW 17.3 mph 23.0 mph N/A   Mostly Cloudy
4:55 PM 14.0 °F -3.0 °F 6.8 °F 73% 30.39 in 10.0 mi NNW 18.4 mph 23.0 mph N/A   Mostly Cloudy
5:15 PM 14.0 °F -3.0 °F 6.8 °F 73% 30.39 in 10.0 mi NNW 18.4 mph 24.2 mph N/A   Partly Cloudy
5:35 PM 14.0 °F -1.4 °F 6.8 °F 73% 30.40 in 10.0 mi NNW 15.0 mph 24.2 mph N/A   Scattered Clouds
5:55 PM 14.0 °F -3.4 °F 5.0 °F 67% 30.40 in 10.0 mi NNW 19.6 mph 25.3 mph N/A   Partly Cloudy
6:15 PM 14.0 °F -3.4 °F 5.0 °F 67% 30.41 in 10.0 mi NNW 19.6 mph - N/A   Partly Cloudy
6:35 PM 12.2 °F -5.3 °F 5.0 °F 73% 30.41 in 10.0 mi NNW 18.4 mph - N/A   Clear
6:55 PM 12.2 °F -5.8 °F 3.2 °F 67% 30.42 in 10.0 mi NNW 19.6 mph 25.3 mph N/A   Clear
7:15 PM 10.4 °F -7.7 °F 3.2 °F 73% 30.43 in 10.0 mi NNW 18.4 mph - N/A   Clear
7:35 PM 10.4 °F -7.2 °F 1.4 °F 67% 30.43 in 10.0 mi NNW 17.3 mph - N/A   Clear
7:55 PM 10.4 °F -6.0 °F 1.4 °F 67% 30.43 in 10.0 mi NNW 15.0 mph 20.7 mph N/A   Clear
8:15 PM 10.4 °F -5.4 °F 1.4 °F 67% 30.44 in 10.0 mi NNW 13.8 mph 21.9 mph N/A   Clear
8:35 PM 10.4 °F -6.6 °F 1.4 °F 67% 30.44 in 10.0 mi NNW 16.1 mph 20.7 mph N/A   Clear
8:55 PM 8.6 °F -8.3 °F 1.4 °F 73% 30.44 in 10.0 mi NNW 15.0 mph - N/A   Clear
9:15 PM 8.6 °F -8.3 °F 1.4 °F 73% 30.45 in 10.0 mi NNW 15.0 mph - N/A   Clear
9:35 PM 8.6 °F -8.3 °F 1.4 °F 73% 30.45 in 10.0 mi NNW 15.0 mph - N/A   Clear
9:55 PM 8.6 °F -8.9 °F 3.2 °F 79% 30.45 in 10.0 mi NNW 16.1 mph 19.6 mph N/A   Clear
10:15 PM 8.6 °F -8.3 °F 1.4 °F 73% 30.46 in 10.0 mi NNW 15.0 mph - N/A   Clear
10:35 PM 8.6 °F -8.9 °F 3.2 °F 79% 30.46 in 10.0 mi NNW 16.1 mph 19.6 mph N/A   Clear
10:55 PM 8.6 °F -8.3 °F 1.4 °F 73% 30.47 in 10.0 mi NNW 15.0 mph - N/A   Clear
11:15 PM 8.6 °F -8.9 °F 1.4 °F 73% 30.48 in 10.0 mi NNW 16.1 mph 20.7 mph N/A   Clear
11:35 PM 6.8 °F -10.0 °F 1.4 °F 79% 30.48 in 10.0 mi NNW 13.8 mph 18.4 mph N/A   Clear
11:55 PM 6.8 °F -8.6 °F 3.2 °F 85% 30.49 in 10.0 mi NNW 11.5 mph - N/A   Clear